Time,TemperatureF,DewpointF,PressureIn,WindDirection,WindDirectionDegrees,WindSpeedMPH,WindSpeedGustMPH,Humidity,HourlyPrecipIn,Conditions,Clouds,dailyrainin,SoftwareType,DateUTC
2013-07-27 00:02:00,67.0,64.0,29.92,South,178,1.0,2.0,89,0.00,,,0.03,,2013-07-27 04:02:00,
2013-07-27 01:02:00,67.0,63.0,29.91,SW,215,2.0,7.0,87,0.00,,,0.03,,2013-07-27 05:02:00,
2013-07-27 01:43:00,67.0,63.0,29.90,SSW,204,1.0,8.0,87,0.00,,,0.03,,2013-07-27 05:43:00,
2013-07-27 02:43:00,67.0,63.0,29.88,WSW,238,2.0,6.0,87,0.00,,,0.03,,2013-07-27 06:43:00,
2013-07-27 03:33:00,67.0,64.0,29.88,SSW,202,4.0,7.0,89,0.00,,,0.03,,2013-07-27 07:33:00,
2013-07-27 03:52:00,67.0,64.0,29.87,SSW,196,4.0,7.0,89,0.00,,,0.03,,2013-07-27 07:52:00,
2013-07-27 04:02:00,67.0,64.0,29.87,SW,224,2.0,4.0,89,0.00,,,0.03,,2013-07-27 08:02:00,
2013-07-27 04:12:00,67.0,64.0,29.87,SSW,198,2.0,8.0,90,0.00,,,0.03,,2013-07-27 08:12:00,
2013-07-27 04:22:00,67.0,64.0,29.87,SW,221,3.0,7.0,90,0.00,,,0.03,,2013-07-27 08:22:00,
2013-07-27 04:32:00,67.0,64.0,29.87,SW,221,2.0,6.0,91,0.00,,,0.03,,2013-07-27 08:32:00,
2013-07-27 04:43:00,67.0,64.0,29.86,SW,224,3.0,6.0,91,0.00,,,0.03,,2013-07-27 08:43:00,
2013-07-27 04:53:00,67.0,64.0,29.86,SW,223,3.0,6.0,91,0.00,,,0.03,,2013-07-27 08:53:00,
2013-07-27 05:02:00,67.0,64.0,29.86,SW,218,3.0,6.0,91,0.00,,,0.03,,2013-07-27 09:02:00,
2013-07-27 05:12:00,67.0,64.0,29.86,SSW,207,3.0,7.0,91,0.00,,,0.03,,2013-07-27 09:12:00,
2013-07-27 05:33:00,67.0,64.0,29.86,WSW,240,2.0,6.0,91,0.00,,,0.03,,2013-07-27 09:33:00,
2013-07-27 05:44:00,67.0,64.0,29.86,SW,216,3.0,6.0,91,0.00,,,0.03,,2013-07-27 09:44:00,
2013-07-27 05:52:00,67.0,64.0,29.86,SSW,213,1.0,5.0,91,0.00,,,0.03,,2013-07-27 09:52:00,
2013-07-27 06:02:00,67.0,65.0,29.85,SW,221,2.0,7.0,92,0.00,,,0.03,,2013-07-27 10:02:00,
2013-07-27 06:12:00,67.0,65.0,29.86,SSW,209,3.0,7.0,92,0.00,,,0.03,,2013-07-27 10:12:00,
2013-07-27 06:52:00,67.0,65.0,29.85,WSW,245,1.0,4.0,93,0.00,,,0.03,,2013-07-27 10:52:00,
2013-07-27 07:52:00,67.0,65.0,29.86,WSW,238,4.0,8.0,92,0.00,,,0.03,,2013-07-27 11:52:00,
2013-07-27 08:33:00,66.0,64.0,29.86,West,262,5.0,9.0,93,0.00,,,0.03,,2013-07-27 12:33:00,
2013-07-27 09:02:00,66.0,64.0,29.86,West,279,3.0,7.0,92,0.00,,,0.03,,2013-07-27 13:02:00,
2013-07-27 10:02:00,68.0,63.0,29.85,West,281,5.0,7.0,84,0.00,,,0.03,,2013-07-27 14:02:00,
2013-07-27 10:44:00,70.0,64.0,29.85,West,275,7.0,12.0,81,0.00,,,0.03,,2013-07-27 14:44:00,
2013-07-27 10:54:00,69.0,63.0,29.85,WNW,292,5.0,12.0,82,0.00,,,0.03,,2013-07-27 14:54:00,
2013-07-27 11:02:00,69.0,63.0,29.84,West,264,5.0,8.0,82,0.00,,,0.03,,2013-07-27 15:02:00,
2013-07-27 11:33:00,70.0,63.0,29.84,WSW,246,6.0,11.0,79,0.00,,,0.03,,2013-07-27 15:33:00,
2013-07-27 11:44:00,71.0,63.0,29.84,WSW,256,7.0,12.0,75,0.00,,,0.03,,2013-07-27 15:44:00,
2013-07-27 11:53:00,71.0,62.0,29.84,SW,221,6.0,13.0,74,0.00,,,0.03,,2013-07-27 15:53:00,
2013-07-27 12:02:00,72.0,63.0,29.84,West,264,6.0,13.0,73,0.00,,,0.03,,2013-07-27 16:02:00,
2013-07-27 12:12:00,71.0,61.0,29.84,WSW,254,6.0,11.0,71,0.00,,,0.03,,2013-07-27 16:12:00,
2013-07-27 12:23:00,71.0,62.0,29.84,West,271,6.0,10.0,72,0.00,,,0.03,,2013-07-27 16:23:00,
2013-07-27 12:33:00,70.0,61.0,29.84,WSW,252,5.0,12.0,72,0.00,,,0.03,,2013-07-27 16:33:00,
2013-07-27 12:43:00,72.0,61.0,29.84,WNW,283,6.0,13.0,68,0.00,,,0.03,,2013-07-27 16:43:00,
2013-07-27 12:53:00,72.0,60.0,29.83,West,271,6.0,13.0,67,0.00,,,0.03,,2013-07-27 16:53:00,
2013-07-27 13:02:00,73.0,60.0,29.83,West,270,7.0,11.0,64,0.00,,,0.03,,2013-07-27 17:02:00,
2013-07-27 13:12:00,73.0,61.0,29.83,SSW,197,6.0,11.0,66,0.00,,,0.03,,2013-07-27 17:12:00,
2013-07-27 13:22:00,73.0,60.0,29.83,West,269,8.0,11.0,63,0.00,,,0.03,,2013-07-27 17:22:00,
2013-07-27 13:32:00,73.0,61.0,29.82,WSW,247,8.0,15.0,66,0.00,,,0.03,,2013-07-27 17:32:00,
2013-07-27 13:43:00,69.0,61.0,29.83,West,281,12.0,20.0,75,0.01,,,0.04,,2013-07-27 17:43:00,
2013-07-27 13:53:00,69.0,63.0,29.83,WNW,294,7.0,16.0,80,0.01,,,0.04,,2013-07-27 17:53:00,
2013-07-27 14:03:00,70.0,61.0,29.83,WNW,292,9.0,15.0,72,0.01,,,0.04,,2013-07-27 18:03:00,
2013-07-27 14:22:00,71.0,62.0,29.83,NNW,333,7.0,16.0,72,0.01,,,0.04,,2013-07-27 18:22:00,
2013-07-27 14:33:00,71.0,60.0,29.83,WSW,251,7.0,12.0,69,0.01,,,0.04,,2013-07-27 18:33:00,
2013-07-27 14:43:00,70.0,60.0,29.83,WNW,291,8.0,14.0,71,0.00,,,0.04,,2013-07-27 18:43:00,
2013-07-27 14:53:00,68.0,61.0,29.84,WSW,255,9.0,19.0,79,0.00,,,0.04,,2013-07-27 18:53:00,
2013-07-27 15:02:00,65.0,60.0,29.84,West,259,6.0,16.0,85,0.01,,,0.05,,2013-07-27 19:02:00,
2013-07-27 15:12:00,67.0,61.0,29.84,West,267,6.0,10.0,82,0.01,,,0.05,,2013-07-27 19:12:00,
2013-07-27 15:22:00,68.0,61.0,29.83,West,279,8.0,13.0,79,0.01,,,0.05,,2013-07-27 19:22:00,
2013-07-27 15:32:00,68.0,59.0,29.83,WNW,294,7.0,14.0,74,0.01,,,0.05,,2013-07-27 19:32:00,
2013-07-27 15:43:00,68.0,60.0,29.83,WSW,250,6.0,12.0,76,0.01,,,0.05,,2013-07-27 19:43:00,
2013-07-27 15:53:00,69.0,60.0,29.83,West,269,9.0,15.0,74,0.01,,,0.05,,2013-07-27 19:53:00,
2013-07-27 16:02:00,69.0,61.0,29.83,WSW,246,12.0,20.0,75,0.00,,,0.05,,2013-07-27 20:02:00,
2013-07-27 16:12:00,68.0,60.0,29.83,WNW,295,8.0,20.0,76,0.00,,,0.05,,2013-07-27 20:12:00,
2013-07-27 16:23:00,68.0,60.0,29.83,West,276,9.0,21.0,76,0.00,,,0.05,,2013-07-27 20:23:00,
2013-07-27 16:32:00,67.0,59.0,29.84,West,278,10.0,25.0,76,0.00,,,0.05,,2013-07-27 20:32:00,
2013-07-27 16:43:00,67.0,60.0,29.84,WNW,284,7.0,20.0,77,0.00,,,0.05,,2013-07-27 20:43:00,
2013-07-27 16:52:00,68.0,59.0,29.84,NW,318,8.0,18.0,74,0.00,,,0.05,,2013-07-27 20:52:00,
2013-07-27 17:03:00,68.0,59.0,29.83,West,275,11.0,19.0,73,0.00,,,0.05,,2013-07-27 21:03:00,
2013-07-27 17:12:00,68.0,59.0,29.84,WNW,288,12.0,19.0,73,0.00,,,0.05,,2013-07-27 21:12:00,
2013-07-27 17:23:00,67.0,59.0,29.84,WNW,293,8.0,19.0,75,0.00,,,0.05,,2013-07-27 21:23:00,
2013-07-27 17:33:00,67.0,58.0,29.84,NNW,327,11.0,20.0,74,0.00,,,0.05,,2013-07-27 21:33:00,
2013-07-27 17:43:00,66.0,57.0,29.85,WNW,286,10.0,19.0,73,0.00,,,0.05,,2013-07-27 21:43:00,
2013-07-27 17:52:00,65.0,57.0,29.85,WNW,298,8.0,17.0,75,0.00,,,0.05,,2013-07-27 21:52:00,
2013-07-27 18:02:00,65.0,57.0,29.85,WNW,292,10.0,21.0,75,0.00,,,0.05,,2013-07-27 22:02:00,
2013-07-27 18:12:00,64.0,56.0,29.86,WNW,289,9.0,20.0,75,0.00,,,0.05,,2013-07-27 22:12:00,
2013-07-27 18:22:00,64.0,56.0,29.86,NNW,330,5.0,15.0,75,0.00,,,0.05,,2013-07-27 22:22:00,
2013-07-27 18:33:00,64.0,56.0,29.86,WNW,284,7.0,14.0,74,0.00,,,0.05,,2013-07-27 22:33:00,
2013-07-27 18:43:00,64.0,55.0,29.86,WNW,297,12.0,19.0,73,0.00,,,0.05,,2013-07-27 22:43:00,
2013-07-27 18:53:00,64.0,55.0,29.86,WNW,282,6.0,14.0,73,0.00,,,0.05,,2013-07-27 22:53:00,
2013-07-27 19:02:00,64.0,55.0,29.87,West,274,8.0,14.0,72,0.00,,,0.05,,2013-07-27 23:02:00,
2013-07-27 19:12:00,64.0,55.0,29.87,WNW,287,10.0,17.0,73,0.00,,,0.05,,2013-07-27 23:12:00,
2013-07-27 19:22:00,63.0,54.0,29.87,West,275,8.0,14.0,72,0.00,,,0.05,,2013-07-27 23:22:00,
2013-07-27 19:32:00,64.0,55.0,29.87,West,276,6.0,18.0,73,0.00,,,0.05,,2013-07-27 23:32:00,
2013-07-27 19:44:00,63.0,53.0,29.87,West,261,9.0,16.0,71,0.00,,,0.05,,2013-07-27 23:44:00,
2013-07-27 19:52:00,63.0,54.0,29.88,NNW,333,7.0,19.0,72,0.00,,,0.05,,2013-07-27 23:52:00,
2013-07-27 20:02:00,63.0,53.0,29.88,NNW,333,12.0,18.0,70,0.00,,,0.05,,2013-07-28 00:02:00,
2013-07-27 20:12:00,63.0,53.0,29.89,NW,306,9.0,15.0,71,0.00,,,0.05,,2013-07-28 00:12:00,
2013-07-27 20:22:00,63.0,54.0,29.89,WNW,292,7.0,14.0,73,0.00,,,0.05,,2013-07-28 00:22:00,
2013-07-27 20:32:00,62.0,53.0,29.89,North,349,7.0,13.0,72,0.00,,,0.05,,2013-07-28 00:32:00,
2013-07-27 20:53:00,62.0,53.0,29.89,West,279,5.0,11.0,72,0.00,,,0.05,,2013-07-28 00:53:00,
2013-07-27 21:02:00,61.0,52.0,29.89,NW,319,5.0,12.0,73,0.00,,,0.05,,2013-07-28 01:02:00,
2013-07-27 21:12:00,61.0,53.0,29.90,NW,319,5.0,12.0,74,0.00,,,0.05,,2013-07-28 01:12:00,
2013-07-27 21:22:00,60.0,52.0,29.90,West,277,7.0,13.0,74,0.00,,,0.05,,2013-07-28 01:22:00,
2013-07-27 21:32:00,60.0,52.0,29.91,West,266,6.0,12.0,75,0.00,,,0.05,,2013-07-28 01:32:00,
2013-07-27 21:43:00,60.0,52.0,29.91,West,273,5.0,14.0,75,0.00,,,0.05,,2013-07-28 01:43:00,
2013-07-27 21:53:00,60.0,52.0,29.91,WNW,284,6.0,10.0,76,0.00,,,0.05,,2013-07-28 01:53:00,
2013-07-27 22:03:00,59.0,51.0,29.91,WNW,292,6.0,12.0,76,0.00,,,0.05,,2013-07-28 02:03:00,
2013-07-27 22:12:00,59.0,52.0,29.91,WNW,284,6.0,12.0,78,0.00,,,0.05,,2013-07-28 02:12:00,
2013-07-27 22:22:00,59.0,52.0,29.91,West,275,6.0,10.0,77,0.00,,,0.03,,2013-07-28 02:22:00,
2013-07-27 22:32:00,59.0,52.0,29.91,NW,314,3.0,10.0,78,0.00,,,0.03,,2013-07-28 02:32:00,
2013-07-27 22:53:00,58.0,52.0,29.91,WSW,257,2.0,7.0,79,0.00,,,0.03,,2013-07-28 02:53:00,
2013-07-27 23:03:00,57.0,51.0,29.92,WSW,244,1.0,6.0,81,0.00,,,0.03,,2013-07-28 03:03:00,
2013-07-27 23:12:00,57.0,52.0,29.92,SW,236,2.0,4.0,82,0.00,,,0.03,,2013-07-28 03:12:00,
2013-07-27 23:22:00,57.0,52.0,29.91,WSW,248,1.0,4.0,83,0.00,,,0.02,,2013-07-28 03:22:00,
2013-07-27 23:32:00,57.0,52.0,29.91,SW,232,2.0,4.0,83,0.00,,,0.02,,2013-07-28 03:32:00,
2013-07-27 23:42:00,57.0,52.0,29.91,WSW,248,2.0,6.0,83,0.00,,,0.02,,2013-07-28 03:42:00,
2013-07-27 23:53:00,57.0,52.0,29.91,WSW,254,2.0,5.0,82,0.00,,,0.02,,2013-07-28 03:53:00,